| time (UTC) | temp C | wind direction | speed KPH | gust KPH | rain 1hr cm | rain 24hr cm | rain mn cm | humidity % | barometer mb |
| 20260505102026 | 6 | 0 | 0.0 | 0.0 | 0.00 | 0.00 | 0.00 | 91 | 1008.5 |
| 20260505101549 | 6 | 0 | 0.0 | 0.0 | 0.00 | 0.00 | 0.00 | 91 | 1008.4 |
| 20260505101026 | 6 | 0 | 0.0 | 0.0 | 0.00 | 0.00 | 0.00 | 91 | 1008.5 |
| 20260505100525 | 6 | 0 | 0.0 | 0.0 | 0.00 | 0.00 | 0.00 | 91 | 1008.5 |
| 20260505100038 | 6 | 0 | 0.0 | 0.0 | 0.00 | 0.00 | 0.00 | 91 | 1008.4 |
| 20260505095526 | 6 | 0 | 0.0 | 0.0 | 0.00 | 0.00 | 0.00 | 91 | 1008.3 |
| 20260505095029 | 6 | 0 | 0.0 | 0.0 | 0.00 | 0.00 | 0.00 | 91 | 1008.4 |
| 20260505094540 | 6 | 0 | 0.0 | 0.0 | 0.00 | 0.00 | 0.00 | 90 | 1008.4 |
| 20260505094026 | 6 | 0 | 0.0 | 0.0 | 0.00 | 0.00 | 0.00 | 91 | 1008.3 |
| 20260505093526 | 6 | 0 | 0.0 | 0.0 | 0.00 | 0.00 | 0.00 | 90 | 1008.4 |
| 20260505093035 | 6 | 0 | 0.0 | 0.0 | 0.00 | 0.00 | 0.00 | 90 | 1008.3 |
| 20260505092527 | 6 | 0 | 0.0 | 0.0 | 0.00 | 0.00 | 0.00 | 90 | 1008.3 |
| 20260505092026 | 6 | 0 | 0.0 | 0.0 | 0.00 | 0.00 | 0.00 | 90 | 1008.3 |
| 20260505091537 | 6 | 0 | 0.0 | 0.0 | 0.00 | 0.00 | 0.00 | 90 | 1008.4 |
| 20260505091027 | 6 | 0 | 0.0 | 0.0 | 0.00 | 0.00 | 0.00 | 89 | 1008.4 |
| 20260505090525 | 6 | 0 | 0.0 | 0.0 | 0.00 | 0.00 | 0.00 | 89 | 1008.4 |
| 20260505090042 | 6 | 0 | 0.0 | 0.0 | 0.00 | 0.00 | 0.00 | 89 | 1008.6 |
| 20260505085529 | 6 | 0 | 0.0 | 0.0 | 0.00 | 0.00 | 0.00 | 89 | 1008.6 |
| 20260505085029 | 6 | 0 | 0.0 | 0.0 | 0.00 | 0.00 | 0.00 | 89 | 1008.6 |
| 20260505084541 | 6 | 0 | 0.0 | 0.0 | 0.00 | 0.00 | 0.00 | 88 | 1008.6 |
| 20260505084025 | 6 | 0 | 0.0 | 0.0 | 0.00 | 0.00 | 0.00 | 88 | 1008.6 |
| 20260505083525 | 6 | 0 | 0.0 | 0.0 | 0.00 | 0.00 | 0.00 | 88 | 1008.7 |
| 20260505083035 | 6 | 0 | 0.0 | 0.0 | 0.00 | 0.00 | 0.00 | 88 | 1008.8 |
| 20260505082528 | 6 | 0 | 0.0 | 0.0 | 0.00 | 0.00 | 0.00 | 88 | 1008.7 |
| 20260505082026 | 6 | 0 | 0.0 | 0.0 | 0.00 | 0.00 | 0.00 | 87 | 1008.7 |
| 20260505081535 | 6 | 0 | 0.0 | 0.0 | 0.00 | 0.00 | 0.00 | 87 | 1008.8 |
| 20260505081026 | 6 | 0 | 0.0 | 0.0 | 0.00 | 0.00 | 0.00 | 87 | 1008.8 |
| 20260505080526 | 6 | 0 | 0.0 | 0.0 | 0.00 | 0.00 | 0.00 | 87 | 1008.7 |
| 20260505080044 | 6 | 0 | 0.0 | 0.0 | 0.00 | 0.00 | 0.00 | 86 | 1008.7 |
| 20260505075555 | 6 | 0 | 0.0 | 0.0 | 0.00 | 0.00 | 0.00 | 86 | 1008.8 |
| 20260505075026 | 6 | 0 | 0.0 | 0.0 | 0.00 | 0.00 | 0.00 | 86 | 1008.8 |
| 20260505074540 | 6 | 0 | 0.0 | 0.0 | 0.00 | 0.00 | 0.00 | 86 | 1008.8 |
| 20260505074026 | 7 | 0 | 0.0 | 0.0 | 0.00 | 0.00 | 0.00 | 86 | 1008.8 |
| 20260505073528 | 7 | 0 | 0.0 | 0.0 | 0.00 | 0.00 | 0.00 | 86 | 1008.7 |
| 20260505073047 | 7 | 0 | 0.0 | 0.0 | 0.00 | 0.00 | 0.00 | 86 | 1008.7 |
| 20260505072526 | 7 | 0 | 0.0 | 0.0 | 0.00 | 0.00 | 0.00 | 85 | 1008.6 |
| 20260505072027 | 7 | 0 | 0.0 | 0.0 | 0.00 | 0.00 | 0.00 | 85 | 1008.6 |
| 20260505071549 | 7 | 0 | 0.0 | 0.0 | 0.00 | 0.00 | 0.00 | 84 | 1008.6 |
| 20260505071026 | 7 | 0 | 0.0 | 0.0 | 0.00 | 0.00 | 0.00 | 84 | 1008.6 |
| 20260505070528 | 7 | 0 | 0.0 | 0.0 | 0.00 | 0.00 | 0.00 | 84 | 1008.7 |
| 20260505070039 | 7 | 0 | 0.0 | 0.0 | 0.00 | 0.00 | 0.00 | 83 | 1008.7 |
| 20260505065527 | 7 | 0 | 0.0 | 0.0 | 0.00 | 0.00 | 0.00 | 83 | 1008.7 |
| 20260505065026 | 7 | 0 | 0.0 | 0.0 | 0.00 | 0.00 | 0.00 | 84 | 1008.7 |
| 20260505064543 | 7 | 0 | 0.0 | 0.0 | 0.00 | 0.00 | 0.00 | 83 | 1008.6 |
| 20260505064026 | 7 | 0 | 0.0 | 0.0 | 0.00 | 0.00 | 0.00 | 83 | 1008.5 |
| 20260505063525 | 7 | 0 | 0.0 | 0.0 | 0.00 | 0.00 | 0.00 | 83 | 1008.6 |
| 20260505063038 | 7 | 0 | 0.0 | 0.0 | 0.00 | 0.00 | 0.00 | 82 | 1008.5 |
| 20260505062529 | 7 | 0 | 0.0 | 0.0 | 0.00 | 0.00 | 0.00 | 81 | 1008.4 |
| 20260505062026 | 8 | 0 | 0.0 | 0.0 | 0.00 | 0.00 | 0.00 | 81 | 1008.4 |
| 20260505061542 | 8 | 0 | 0.0 | 0.0 | 0.00 | 0.00 | 0.00 | 81 | 1008.4 |
| 20260505061027 | 8 | 0 | 0.0 | 0.0 | 0.00 | 0.00 | 0.00 | 81 | 1008.5 |
| 20260505060529 | 8 | 0 | 0.0 | 0.0 | 0.00 | 0.00 | 0.00 | 81 | 1008.5 |
| 20260505060047 | 8 | 0 | 0.0 | 0.0 | 0.00 | 0.00 | 0.00 | 80 | 1008.5 |
| 20260505055527 | 8 | 0 | 0.0 | 0.0 | 0.00 | 0.00 | 0.00 | 79 | 1008.5 |
| 20260505055025 | 8 | 0 | 0.0 | 0.0 | 0.00 | 0.00 | 0.00 | 78 | 1008.5 |
| 20260505054538 | 8 | 0 | 0.0 | 0.0 | 0.00 | 0.00 | 0.00 | 77 | 1008.3 |
| 20260505054025 | 8 | 0 | 0.0 | 0.0 | 0.00 | 0.00 | 0.00 | 77 | 1008.5 |
| 20260505053525 | 9 | 0 | 0.0 | 0.0 | 0.00 | 0.00 | 0.00 | 76 | 1008.5 |
| 20260505053043 | 9 | 0 | 0.0 | 0.0 | 0.00 | 0.00 | 0.00 | 76 | 1008.4 |
| 20260505052525 | 9 | 0 | 0.0 | 0.0 | 0.00 | 0.00 | 0.00 | 75 | 1008.4 |
| 20260505052027 | 9 | 0 | 0.0 | 0.0 | 0.00 | 0.00 | 0.00 | 75 | 1008.3 |
| 20260505051548 | 9 | 0 | 0.0 | 0.0 | 0.00 | 0.00 | 0.00 | 75 | 1008.3 |
| 20260505051026 | 9 | 0 | 0.0 | 0.0 | 0.00 | 0.00 | 0.00 | 75 | 1008.2 |
| 20260505050530 | 9 | 0 | 0.0 | 1.6 | 0.00 | 0.00 | 0.00 | 75 | 1008.2 |
| 20260505041538 | 11 | 0 | 0.0 | 0.0 | 0.00 | 0.00 | 0.00 | 71 | 1007.9 |
| 20260505041026 | 11 | 0 | 0.0 | 0.0 | 0.00 | 0.00 | 0.00 | 72 | 1007.8 |
| 20260505040526 | 10 | 0 | 0.0 | 6.4 | 0.00 | 0.00 | 0.00 | 72 | 1007.7 |
| 20260505040042 | 10 | 0 | 0.0 | 6.4 | 0.00 | 0.00 | 0.00 | 73 | 1007.6 |
| 20260505035526 | 10 | 210 | 0.0 | 4.8 | 0.00 | 0.00 | 0.00 | 75 | 1007.6 |
| 20260505035025 | 10 | 0 | 0.0 | 6.4 | 0.00 | 0.00 | 0.00 | 77 | 1007.6 |
| 20260505034540 | 9 | 0 | 0.0 | 6.4 | 0.00 | 0.00 | 0.00 | 78 | 1007.6 |
| 20260505034025 | 8 | 0 | 0.0 | 0.0 | 0.00 | 0.00 | 0.00 | 80 | 1007.6 |
| 20260505033525 | 8 | 0 | 0.0 | 0.0 | 0.00 | 0.00 | 0.00 | 81 | 1007.6 |
| 20260505033038 | 8 | 0 | 0.0 | 0.0 | 0.00 | 0.00 | 0.00 | 81 | 1007.5 |
| 20260505032524 | 8 | 0 | 0.0 | 0.0 | 0.00 | 0.00 | 0.00 | 81 | 1007.6 |
| 20260505032026 | 8 | 0 | 0.0 | 0.0 | 0.00 | 0.00 | 0.00 | 81 | 1007.6 |
| 20260505031536 | 8 | 0 | 0.0 | 0.0 | 0.00 | 0.00 | 0.00 | 81 | 1007.6 |
| 20260505031025 | 8 | 0 | 0.0 | 0.0 | 0.00 | 0.00 | 0.00 | 80 | 1007.5 |
| 20260505030525 | 8 | 0 | 0.0 | 0.0 | 0.00 | 0.00 | 0.00 | 80 | 1007.4 |
| 20260505030043 | 8 | 0 | 0.0 | 0.0 | 0.00 | 0.00 | 0.00 | 80 | 1007.5 |
| 20260505025526 | 8 | 0 | 0.0 | 0.0 | 0.00 | 0.00 | 0.00 | 80 | 1007.5 |
| 20260505025025 | 8 | 0 | 0.0 | 0.0 | 0.00 | 0.00 | 0.00 | 79 | 1007.5 |
| 20260505024540 | 8 | 0 | 0.0 | 0.0 | 0.00 | 0.00 | 0.00 | 79 | 1007.5 |
| 20260505024025 | 8 | 0 | 0.0 | 0.0 | 0.00 | 0.00 | 0.00 | 79 | 1007.5 |
| 20260505023525 | 9 | 0 | 0.0 | 0.0 | 0.00 | 0.00 | 0.00 | 78 | 1007.5 |
| 20260505023041 | 9 | 0 | 0.0 | 0.0 | 0.00 | 0.00 | 0.00 | 78 | 1007.5 |
| 20260505022525 | 9 | 0 | 0.0 | 0.0 | 0.00 | 0.00 | 0.00 | 77 | 1007.5 |
| 20260505022029 | 9 | 0 | 0.0 | 0.0 | 0.00 | 0.00 | 0.00 | 77 | 1007.5 |
| 20260505021538 | 9 | 0 | 0.0 | 0.0 | 0.00 | 0.00 | 0.00 | 76 | 1007.5 |
| 20260505021029 | 9 | 0 | 0.0 | 0.0 | 0.00 | 0.00 | 0.00 | 76 | 1007.5 |
| 20260505020525 | 9 | 0 | 0.0 | 0.0 | 0.00 | 0.00 | 0.00 | 76 | 1007.4 |
| 20260505020038 | 9 | 0 | 0.0 | 0.0 | 0.00 | 0.00 | 0.00 | 76 | 1007.4 |
| 20260505015526 | 10 | 0 | 0.0 | 0.0 | 0.00 | 0.00 | 0.00 | 76 | 1007.4 |
| 20260505015029 | 10 | 0 | 0.0 | 0.0 | 0.00 | 0.00 | 0.00 | 75 | 1007.4 |
| 20260505014536 | 10 | 0 | 0.0 | 0.0 | 0.00 | 0.00 | 0.00 | 74 | 1007.3 |
| 20260505014029 | 10 | 0 | 0.0 | 0.0 | 0.00 | 0.00 | 0.00 | 74 | 1007.3 |
| 20260505013525 | 10 | 0 | 0.0 | 0.0 | 0.00 | 0.00 | 0.00 | 74 | 1007.3 |
| 20260505013055 | 10 | 0 | 0.0 | 0.0 | 0.00 | 0.00 | 0.00 | 73 | 1007.1 |
| 20260505012525 | 10 | 0 | 0.0 | 0.0 | 0.00 | 0.00 | 0.00 | 73 | 1007.1 |
| 20260505012026 | 10 | 0 | 0.0 | 0.0 | 0.00 | 0.00 | 0.00 | 73 | 1007.0 |
| 20260505011541 | 10 | 0 | 0.0 | 0.0 | 0.00 | 0.00 | 0.00 | 71 | 1006.9 |
| 20260505011025 | 11 | 0 | 0.0 | 0.0 | 0.00 | 0.00 | 0.00 | 71 | 1006.8 |
| 20260505010525 | 11 | 0 | 0.0 | 0.0 | 0.00 | 0.00 | 0.00 | 71 | 1006.8 |
| 20260505010041 | 11 | 0 | 0.0 | 0.0 | 0.00 | 0.00 | 0.00 | 70 | 1006.8 |
| 20260505005529 | 11 | 0 | 0.0 | 0.0 | 0.00 | 0.00 | 0.00 | 69 | 1006.8 |
| 20260505005023 | 11 | 0 | 0.0 | 0.0 | 0.00 | 0.00 | 0.00 | 69 | 1006.7 |
| 20260505004539 | 11 | 0 | 0.0 | 0.0 | 0.00 | 0.00 | 0.00 | 69 | 1006.5 |
| 20260505004026 | 11 | 0 | 0.0 | 0.0 | 0.00 | 0.00 | 0.00 | 69 | 1006.5 |
| 20260505003528 | 12 | 0 | 0.0 | 0.0 | 0.00 | 0.00 | 0.00 | 67 | 1006.4 |
| 20260505003036 | 12 | 0 | 0.0 | 0.0 | 0.00 | 0.00 | 0.00 | 67 | 1006.5 |
| 20260505002525 | 12 | 0 | 0.0 | 0.0 | 0.00 | 0.00 | 0.00 | 66 | 1006.4 |
| 20260505002026 | 12 | 0 | 0.0 | 0.0 | 0.00 | 0.00 | 0.00 | 64 | 1006.3 |
| 20260505001538 | 13 | 0 | 0.0 | 0.0 | 0.00 | 0.00 | 0.00 | 62 | 1006.2 |
| 20260505001027 | 13 | 0 | 0.0 | 0.0 | 0.00 | 0.00 | 0.00 | 61 | 1006.1 |
| 20260505000531 | 13 | 0 | 0.0 | 0.0 | 0.00 | 0.00 | 0.00 | 60 | 1006.0 |
| 20260505000050 | 13 | 0 | 0.0 | 0.0 | 0.00 | 0.00 | 0.00 | 60 | 1006.0 |
| 20260504235525 | 13 | 0 | 0.0 | 1.6 | 0.00 | 0.00 | 0.00 | 59 | 1005.9 |
| 20260504235026 | 14 | 0 | 0.0 | 1.6 | 0.00 | 0.00 | 0.00 | 58 | 1005.9 |
| 20260504234542 | 15 | 0 | 0.0 | 1.6 | 0.00 | 0.00 | 0.00 | 57 | 1006.0 |
| 20260504234029 | 15 | 0 | 0.0 | 1.6 | 0.00 | 0.00 | 0.00 | 57 | 1006.0 |
| 20260504233524 | 15 | 0 | 0.0 | 1.6 | 0.00 | 0.00 | 0.00 | 55 | 1006.0 |
| 20260504233043 | 15 | 0 | 0.0 | 3.2 | 0.00 | 0.00 | 0.00 | 53 | 1005.8 |
| 20260504232525 | 16 | 0 | 0.0 | 3.2 | 0.00 | 0.00 | 0.00 | 52 | 1005.7 |
| 20260504232027 | 16 | 0 | 0.0 | 3.2 | 0.00 | 0.00 | 0.00 | 50 | 1005.6 |
| 20260504231539 | 17 | 0 | 0.0 | 3.2 | 0.00 | 0.00 | 0.00 | 48 | 1005.4 |
| 20260504231025 | 17 | 0 | 0.0 | 3.2 | 0.00 | 0.00 | 0.00 | 47 | 1005.5 |
| 20260504230526 | 18 | 0 | 0.0 | 1.6 | 0.00 | 0.00 | 0.00 | 46 | 1005.3 |
| 20260504230037 | 18 | 0 | 0.0 | 1.6 | 0.00 | 0.00 | 0.00 | 44 | 1005.2 |
| 20260504225525 | 18 | 0 | 0.0 | 8.0 | 0.00 | 0.00 | 0.00 | 40 | 1005.2 |
| 20260504225025 | 18 | 0 | 0.0 | 8.0 | 0.00 | 0.00 | 0.00 | 44 | 1005.2 |
| 20260504224543 | 18 | 0 | 0.0 | 9.7 | 0.00 | 0.00 | 0.00 | 39 | 1005.1 |
| 20260504224025 | 19 | 0 | 0.0 | 9.7 | 0.00 | 0.00 | 0.00 | 39 | 1005.0 |
| 20260504223525 | 19 | 0 | 0.0 | 6.4 | 0.00 | 0.00 | 0.00 | 42 | 1005.0 |
| 20260504223038 | 19 | 0 | 0.0 | 6.4 | 0.00 | 0.00 | 0.00 | 40 | 1005.0 |
| 20260504222528 | 19 | 0 | 0.0 | 4.8 | 0.00 | 0.00 | 0.00 | 38 | 1005.0 |
| 20260504222025 | 19 | 0 | 0.0 | 3.2 | 0.00 | 0.00 | 0.00 | 40 | 1005.0 |
| 20260504221537 | 19 | 0 | 0.0 | 0.0 | 0.00 | 0.00 | 0.00 | 39 | 1005.1 |
| 20260504221026 | 20 | 0 | 0.0 | 4.8 | 0.00 | 0.00 | 0.00 | 40 | 1005.1 |
| 20260504220524 | 20 | 0 | 0.0 | 4.8 | 0.00 | 0.00 | 0.00 | 38 | 1005.0 |
| 20260504220044 | 20 | 0 | 0.0 | 4.8 | 0.00 | 0.00 | 0.00 | 37 | 1005.0 |
| 20260504215525 | 20 | 0 | 0.0 | 8.0 | 0.00 | 0.00 | 0.00 | 35 | 1005.0 |
| 20260504215029 | 20 | 0 | 0.0 | 8.0 | 0.00 | 0.00 | 0.00 | 39 | 1005.0 |
| 20260504214545 | 20 | 0 | 0.0 | 8.0 | 0.00 | 0.00 | 0.00 | 36 | 1005.1 |
| 20260504214025 | 20 | 0 | 0.0 | 8.0 | 0.00 | 0.00 | 0.00 | 36 | 1005.2 |
| 20260504213529 | 20 | 237 | 0.0 | 9.7 | 0.00 | 0.00 | 0.00 | 36 | 1005.2 |
| 20260504213040 | 20 | 0 | 1.6 | 12.9 | 0.00 | 0.00 | 0.00 | 37 | 1005.1 |
| 20260504212525 | 20 | 0 | 0.0 | 12.9 | 0.00 | 0.00 | 0.00 | 37 | 1005.1 |
| 20260504212029 | 21 | 255 | 1.6 | 12.9 | 0.00 | 0.00 | 0.00 | 35 | 1005.0 |
| 20260504211537 | 21 | 0 | 0.0 | 11.3 | 0.00 | 0.00 | 0.00 | 36 | 1005.0 |
| 20260504211025 | 21 | 283 | 0.0 | 16.1 | 0.00 | 0.00 | 0.00 | 35 | 1005.0 |
| 20260504210525 | 20 | 0 | 1.6 | 16.1 | 0.00 | 0.00 | 0.00 | 36 | 1004.9 |
| 20260504210041 | 20 | 0 | 4.8 | 16.1 | 0.00 | 0.00 | 0.00 | 36 | 1005.0 |
| 20260504205525 | 20 | 0 | 6.4 | 14.5 | 0.00 | 0.00 | 0.00 | 36 | 1005.0 |
| 20260504205024 | 20 | 0 | 3.2 | 11.3 | 0.00 | 0.00 | 0.00 | 39 | 1004.9 |
| 20260504204540 | 20 | 0 | 1.6 | 11.3 | 0.00 | 0.00 | 0.00 | 37 | 1005.0 |
| 20260504204024 | 21 | 0 | 0.0 | 9.7 | 0.00 | 0.00 | 0.00 | 37 | 1005.0 |
| 20260504203527 | 21 | 0 | 1.6 | 17.7 | 0.00 | 0.00 | 0.00 | 38 | 1005.0 |
| 20260504203040 | 21 | 284 | 0.0 | 17.7 | 0.00 | 0.00 | 0.00 | 37 | 1005.0 |
| 20260504202525 | 21 | 289 | 3.2 | 14.5 | 0.00 | 0.00 | 0.00 | 39 | 1005.1 |
| 20260504202024 | 21 | 0 | 0.0 | 12.9 | 0.00 | 0.00 | 0.00 | 40 | 1005.1 |
| 20260504201536 | 20 | 243 | 1.6 | 12.9 | 0.00 | 0.00 | 0.00 | 37 | 1005.1 |
| 20260504201025 | 20 | 281 | 1.6 | 12.9 | 0.00 | 0.00 | 0.00 | 38 | 1005.2 |
| 20260504200525 | 20 | 258 | 1.6 | 9.7 | 0.00 | 0.00 | 0.00 | 38 | 1005.3 |
| 20260504200045 | 20 | 297 | 0.0 | 14.5 | 0.00 | 0.00 | 0.00 | 40 | 1005.3 |
| 20260504195524 | 20 | 0 | 1.6 | 14.5 | 0.00 | 0.00 | 0.00 | 40 | 1005.4 |
| 20260504195027 | 20 | 303 | 1.6 | 9.7 | 0.00 | 0.00 | 0.00 | 41 | 1005.3 |
| 20260504194535 | 18 | 0 | 0.0 | 3.2 | 0.00 | 0.00 | 0.00 | 48 | 1005.5 |
| 20260504194025 | 18 | 0 | 0.0 | 9.7 | 0.00 | 0.00 | 0.00 | 47 | 1005.5 |
| 20260504193525 | 18 | 0 | 0.0 | 11.3 | 0.00 | 0.00 | 0.00 | 47 | 1005.6 |
| 20260504193040 | 17 | 0 | 1.6 | 11.3 | 0.00 | 0.00 | 0.00 | 50 | 1005.6 |
| 20260504192524 | 17 | 0 | 0.0 | 9.7 | 0.00 | 0.00 | 0.00 | 49 | 1005.7 |
| 20260504192027 | 18 | 307 | 0.0 | 9.7 | 0.00 | 0.00 | 0.00 | 49 | 1005.7 |
| 20260504191548 | 18 | 295 | 0.0 | 8.0 | 0.00 | 0.00 | 0.00 | 48 | 1005.6 |
| 20260504191024 | 18 | 0 | 0.0 | 8.0 | 0.00 | 0.00 | 0.00 | 50 | 1005.5 |
| 20260504190527 | 18 | 0 | 1.6 | 9.7 | 0.00 | 0.00 | 0.00 | 50 | 1005.5 |
| 20260504190038 | 17 | 0 | 0.0 | 11.3 | 0.00 | 0.00 | 0.00 | 52 | 1005.5 |
| 20260504185525 | 17 | 309 | 0.0 | 11.3 | 0.00 | 0.00 | 0.00 | 55 | 1005.7 |
| 20260504185025 | 16 | 0 | 0.0 | 3.2 | 0.00 | 0.00 | 0.00 | 54 | 1005.8 |
| 20260504184538 | 16 | 0 | 0.0 | 3.2 | 0.00 | 0.00 | 0.00 | 56 | 1005.7 |
| 20260504184025 | 15 | 0 | 0.0 | 3.2 | 0.00 | 0.00 | 0.00 | 58 | 1005.8 |
| 20260504183525 | 15 | 0 | 0.0 | 4.8 | 0.00 | 0.00 | 0.00 | 60 | 1005.8 |
| 20260504183043 | 15 | 0 | 0.0 | 4.8 | 0.00 | 0.00 | 0.00 | 60 | 1005.9 |
| 20260504182525 | 15 | 0 | 0.0 | 6.4 | 0.00 | 0.00 | 0.00 | 59 | 1005.9 |
| 20260504182024 | 15 | 301 | 0.0 | 11.3 | 0.00 | 0.00 | 0.00 | 59 | 1005.9 |
| 20260504181539 | 15 | 0 | 1.6 | 12.9 | 0.00 | 0.00 | 0.00 | 58 | 1005.9 |
| 20260504181027 | 15 | 0 | 3.2 | 12.9 | 0.00 | 0.00 | 0.00 | 55 | 1005.9 |
| 20260504180527 | 15 | 0 | 0.0 | 8.0 | 0.00 | 0.00 | 0.00 | 54 | 1005.9 |
| 20260504180041 | 15 | 0 | 0.0 | 12.9 | 0.00 | 0.00 | 0.00 | 54 | 1005.8 |
| 20260504175528 | 15 | 257 | 0.0 | 12.9 | 0.00 | 0.00 | 0.00 | 54 | 1005.9 |
| 20260504175024 | 16 | 266 | 4.8 | 12.9 | 0.00 | 0.00 | 0.00 | 51 | 1005.8 |
| 20260504174540 | 16 | 298 | 1.6 | 12.9 | 0.00 | 0.00 | 0.00 | 46 | 1005.9 |
| 20260504174024 | 16 | 309 | 4.8 | 14.5 | 0.00 | 0.00 | 0.00 | 43 | 1005.8 |
| 20260504173524 | 16 | 0 | 0.0 | 16.1 | 0.00 | 0.00 | 0.00 | 45 | 1005.8 |
| 20260504173042 | 16 | 280 | 4.8 | 17.7 | 0.00 | 0.00 | 0.00 | 42 | 1005.9 |
| 20260504172524 | 16 | 186 | 1.6 | 19.3 | 0.00 | 0.00 | 0.00 | 41 | 1005.5 |
| 20260504172025 | 16 | 282 | 4.8 | 19.3 | 0.00 | 0.00 | 0.00 | 42 | 1005.6 |
| 20260504171536 | 16 | 232 | 3.2 | 19.3 | 0.00 | 0.00 | 0.00 | 42 | 1005.5 |
| 20260504171028 | 16 | 277 | 6.4 | 19.3 | 0.00 | 0.00 | 0.00 | 40 | 1005.4 |
| 20260504170531 | 17 | 295 | 4.8 | 16.1 | 0.00 | 0.00 | 0.00 | 42 | 1005.3 |
| 20260504151023 | 15 | 0 | 1.6 | 16.1 | 0.00 | 0.00 | 0.00 | 50 | 1006.0 |
| 20260504150523 | 15 | 222 | 0.0 | 12.9 | 0.00 | 0.00 | 0.00 | 49 | 1006.1 |
| 20260504141023 | 12 | 211 | 4.8 | 16.1 | 0.00 | 0.00 | 0.00 | 58 | 1007.0 |
| 20260504140523 | 12 | 232 | 3.2 | 16.1 | 0.00 | 0.00 | 0.00 | 60 | 1007.1 |
| 20260504130526 | 11 | 193 | 0.0 | 11.3 | 0.00 | 0.00 | 0.00 | 65 | 1008.2 |
| 20260504110525 | 0 | 0 | 0.0 | 0.0 | 0.00 | 0.00 | 0.00 | 93 | 1008.6 |